Terug naar catalogus

NOAA 16 DEB

ActiefSSO
NORAD 42334·DEBRIS·🇺🇸 United States

Gelanceerd Sep 21, 2000 vanaf Vandenberg Space Force Base

Loading…

Volgende Passages (komende 24 uur)

TLE

VersSource: Space-Track

Epoch: Sep 13, 2026, 15:10 UTC

1 42334U 00055QA  26256.63249056  .00003477  00000-0  11193-2 0  9990
2 42334  98.8556  28.8588 0010460 292.5363  67.4717 14.39941891524573

Volg NOAA 16 DEB in realtime met AllMySat

Download on the App Store